RH
44 41 43 42 39 33 28 27 25 23 23 23 25 26 27 29 29 28 26 30 35 40 39 52 57 58 58 58 60 63 61 60 55 47 42 49 54 53 55 58 62 68 68
49 41 41 39 36 33 31 29 27 25 23 22 22 21 20 19 17 16 17 20 22 26 34 40 52 64 64 63 58 51 48 41 40 43 57 60 59 57 63 68 74 79 78
38 34 37 36 35 33 31 29 27 25 23 21 20 19 17 16 14 14 15 15 16 19 24 27 33 38 36 30 24 25 28 28 31 41 67 74 70 68 68 70 71 83 73
35 36 34 33 32 30 28 23 19 17 18 19 19 18 17 14 13 12 12 14 16 16 17 18 20 21 23 26 29 30 35 38 46 48 53 58 64 65 64 67 71 70 97
41 34 31 30 29 28 26 22 18 16 15 15 14 13 13 13 13 14 14 16 20 23 25 24 23 21 22 26 29 49 48 37 31 34 38 43 53 62 75 63 72 84 79
38 29 24 26 28 28 24 20 19 18 16 14 14 14 14 15 16 18 19 21 21 19 17 15 15 16 19 22 24 29 27 60 75 52 57 60 67 61 57 59 53 54 59
30 30 31 31 30 27 20 18 17 17 19 22 23 23 23 24 23 22 21 19 18 17 17 16 17 20 24 28 30 32 35 37 37 51 47 41 42 44 46 50 54 51 51
32 34 33 35 32 25 21 24 26 26 27 26 27 26 26 24 22 20 19 20 22 24 27 29 31 32 33 35 36 37 39 39 40 39 36 38 39 43 48 51 54 60 55
34 43 41 34 33 33 34 33 32 30 27 24 23 22 21 20 20 21 24 29 32 35 26 20 20 23 28 33 35 34 35 31 24 24 26 28 32 35 40 43 44 47 45
45 42 39 36 35 35 35 33 30 27 25 22 21 20 20 22 24 27 31 34 34 25 15 11 10 9 10 11 13 14 14 19 23 23 21 24 31 34 35 38 50 58 64
40 38 37 38 38 36 34 32 30 28 26 24 24 25 28 31 33 35 36 36 26 15 13 13 12 10 10 12 14 13 20 29 28 25 24 29 34 34 36 45 54 57 74
45 44 41 39 38 37 36 35 35 35 36 37 39 40 40 39 39 40 36 24 16 18 20 21 21 20 14 12 12 15 28 35 33 31 30 35 36 37 40 48 52 62 92
50 48 44 43 41 40 41 48 50 49 47 46 45 45 42 33 30 26 20 20 21 22 25 25 27 22 17 12 19 37 39 39 37 38 44 42 41 38 39 44 52 60 64
53 51 48 46 48 58 59 54 49 47 50 47 49 48 35 26 23 23 24 25 26 27 30 32 36 33 31 38 41 42 41 36 37 42 42 47 53 41 44 52 58 64 62
53 52 54 68 70 63 57 53 49 48 50 46 54 45 31 26 26 31 37 36 30 33 36 40 41 43 44 44 45 45 43 44 47 48 47 47 55 56 53 26 28 40 41
57 58 74 75 70 65 60 53 49 49 50 48 44 35 29 29 36 41 43 37 38 44 49 46 47 47 49 51 51 50 48 49 49 26 16 17 20 31 16 5 4 5 7
54 58 79 76 74 67 61 53 51 52 52 55 42 36 38 49 46 48 47 45 49 53 51 50 53 54 52 50 50 47 33 24 18 13 10 9 7 6 4 3 2 2 2
54 64 78 77 76 69 61 53 56 57 61 62 56 54 56 53 54 56 54 54 54 54 53 54 52 46 39 32 23 19 18 15 14 13 13 14 16 16 14 10 7 5 4
56 74 79 84 76 69 59 57 58 58 59 64 63 60 63 64 64 61 59 54 54 52 50 43 26 19 18 20 21 20 19 19 20 19 20 20 21 22 21 19 16 10 6
54 80 88 85 79 72 61 62 64 61 59 57 60 66 67 67 67 65 58 56 47 39 31 19 17 19 22 23 24 25 25 26 28 29 31 32 32 31 29 24 20 15 9
83 88 92 86 82 77 68 64 66 64 60 56 58 63 66 68 68 58 45 34 26 23 19 17 18 22 24 26 27 28 30 33 35 36 37 37 36 35 32 28 20 15 12
94 96 90 88 89 84 76 67 67 69 66 60 60 62 64 68 58 31 27 28 25 19 17 17 20 23 25 27 28 30 34 36 36 38 40 41 41 40 36 28 18 12 10
91 89 88 89 93 89 78 79 72 73 69 65 63 67 65 56 33 26 28 28 24 20 18 18 19 22 24 27 29 33 37 38 40 42 42 43 43 42 38 33 22 12 8
94 92 90 85 94 88 81 83 84 74 72 70 65 57 44 30 26 25 28 28 25 22 20 19 19 21 24 26 30 35 38 40 43 43 42 44 46 45 42 37 29 16 8
99 99 93 88 87 92 84 84 88 85 76 74 70 57 36 29 26 25 28 29 28 26 23 21 21 22 24 26 30 34 38 42 44 45 45 44 44 47 49 45 36 24 12
98 100 99 98 94 89 92 83 88 90 82 76 74 64 43 32 28 26 27 29 30 28 26 24 24 23 24 26 28 31 35 38 41 43 45 44 43 44 52 54 47 30 15
Wind_Speed
31 31 31 32 32 30 28 28 28 29 28 28 29 30 30 30 29 29 28 28 28 28 29 29 30 31 32 32 32 34 35 34 34 36 37 37 37 37 35 34 33 32 31
37 34 32 31 31 30 30 31 31 31 31 31 33 33 33 33 32 31 31 32 33 33 34 34 34 35 37 37 37 39 40 41 38 39 38 42 41 40 38 36 35 34 34
39 37 34 33 33 33 33 32 32 34 35 35 35 36 36 35 34 34 33 34 36 37 39 38 39 40 42 43 43 43 41 41 39 37 38 41 44 43 43 41 39 38 39
30 30 30 31 30 30 30 30 31 31 31 32 34 35 36 36 35 35 34 33 36 38 39 39 40 40 41 41 40 38 38 38 38 39 38 38 41 44 48 45 43 43 39
31 31 31 32 33 34 34 32 32 33 34 34 34 34 34 34 34 34 33 33 34 34 34 35 35 36 36 37 37 36 36 37 38 38 38 39 40 41 42 48 44 43 44
34 30 29 32 33 33 33 34 34 33 33 32 31 31 32 32 33 33 33 33 33 33 32 31 31 30 30 30 30 31 32 31 32 34 34 35 37 39 40 43 46 47 45
34 34 30 31 34 34 33 33 32 30 29 28 28 29 29 30 31 31 31 31 32 33 33 34 34 34 34 33 32 33 33 33 34 34 36 37 38 37 39 42 44 47 48
34 29 28 30 29 29 27 26 25 26 27 27 27 28 29 31 31 32 32 32 33 34 34 36 36 36 37 36 36 35 35 37 38 37 37 37 38 38 38 40 42 46 48
24 24 25 25 24 23 22 23 25 25 26 27 27 28 28 29 30 30 31 32 32 32 33 33 33 34 34 34 35 35 35 34 34 35 34 33 33 33 35 36 38 41 45
23 23 22 21 21 21 21 21 22 23 24 26 27 28 29 30 31 31 31 30 30 30 29 28 29 29 29 29 29 27 27 28 31 31 28 28 29 31 34 37 39 41 45
18 17 18 19 19 18 19 21 23 25 26 28 28 29 30 30 31 30 29 29 28 28 27 27 27 27 25 25 23 23 24 26 26 26 26 27 29 31 34 36 37 41 31
15 16 18 19 18 19 21 23 25 26 27 28 28 28 28 28 27 27 26 25 25 25 27 27 26 26 25 24 23 23 24 24 24 25 26 28 28 30 33 33 35 37 28
16 17 18 18 18 20 22 23 24 25 26 27 27 27 25 24 23 22 22 22 24 24 23 24 24 23 22 22 22 21 21 22 22 23 26 27 29 26 26 26 29 27 26
16 17 16 18 19 20 20 21 22 23 24 24 24 23 22 20 20 20 21 22 23 22 21 22 22 20 18 19 20 18 18 19 21 23 17 25 25 19 19 23 25 22 23
15 15 17 18 18 18 18 20 21 21 22 22 21 20 20 19 19 20 20 21 20 20 19 18 15 15 16 16 14 13 16 19 19 17 18 17 16 18 15 16 18 18 20
14 15 17 17 17 16 17 19 21 21 20 20 19 18 18 19 19 19 18 18 17 16 16 14 14 15 12 11 11 12 11 8 5 5 7 8 8 9 15 20 22 23 23
14 15 15 16 17 17 17 19 20 20 20 19 18 18 18 18 18 16 15 14 13 13 12 8 5 5 4 2 1 0 1 4 7 9 10 12 14 15 17 20 21 23 23
16 17 17 16 17 18 18 18 19 18 16 16 17 17 18 18 17 15 12 11 10 7 5 4 5 4 4 3 2 4 6 8 10 12 13 15 16 17 19 20 22 23 23
19 18 18 16 16 17 17 15 13 13 13 14 15 16 16 14 11 10 9 7 6 6 7 6 6 4 3 4 6 8 10 12 14 15 16 18 19 19 20 22 23 24 24
21 19 17 16 15 15 14 12 10 9 10 12 14 14 11 9 9 8 7 7 6 7 7 6 6 6 6 7 9 11 13 15 17 19 20 21 22 23 23 23 23 24 24
19 17 16 14 14 12 12 12 11 9 9 9 7 8 9 9 10 9 8 8 7 7 7 7 7 8 9 10 12 14 16 17 19 20 21 21 23 23 23 24 24 24 25
16 17 16 14 13 12 12 12 11 10 8 7 6 6 8 10 9 10 9 9 9 9 9 9 10 11 12 13 15 16 18 19 20 21 22 24 24 25 25 24 24 25 25
13 12 14 16 15 14 13 13 12 11 9 7 7 8 8 9 10 10 11 11 11 11 11 12 12 13 15 16 17 18 19 20 21 22 23 24 25 25 25 24 25 25 25
17 14 12 12 15 15 13 11 12 12 11 10 10 10 11 11 12 12 13 13 13 13 13 14 15 15 16 17 18 19 20 21 22 24 25 25 26 25 26 26 26 26 26
13 14 14 14 15 15 15 13 11 12 13 13 12 12 13 14 13 14 15 15 15 15 15 15 17 18 18 18 19 20 21 22 24 25 25 26 27 27 27 28 28 28 27
16 17 18 18 17 17 18 16 12 12 13 15 14 15 16 15 15 17 17 18 18 17 17 17 18 20 20 20 21 21 22 23 25 26 27 27 28 29 29 28 28 28 28
Wind_Direction
245 242 246 252 255 256 254 254 254 254 255 259 262 263 266 268 270 274 275 274 275 274 277 275 274 275 276 281 282 284 287 286 287 285 285 282 282 282 282 283 283 282 282
250 249 243 248 250 251 251 253 258 263 265 264 262 262 264 265 266 269 271 273 273 272 270 271 273 275 277 278 281 282 281 283 283 283 284 285 285 283 286 283 282 280 280
243 248 251 251 251 253 254 257 259 260 261 262 264 267 269 270 271 271 271 270 271 271 271 271 272 273 275 278 279 281 281 281 281 279 280 285 289 293 291 290 287 282 282
237 241 245 249 253 255 257 259 261 262 262 263 265 266 267 268 269 270 268 265 263 264 268 271 273 275 277 277 278 279 279 280 281 278 280 280 282 287 289 290 290 288 282
245 249 251 254 256 258 260 261 259 261 265 267 265 265 265 266 266 267 269 269 269 269 270 272 274 275 274 274 274 274 277 278 281 283 283 281 281 282 286 288 291 288 287
245 248 251 253 256 260 262 262 262 263 264 265 264 264 264 264 265 266 266 268 270 272 273 272 271 271 270 270 272 272 272 274 276 279 280 282 282 285 286 286 288 289 287
243 247 253 257 259 261 262 262 263 263 261 260 260 260 261 261 262 265 267 268 270 272 274 275 275 276 277 277 276 276 277 277 276 277 280 284 285 286 288 291 292 292 294
244 249 256 261 260 258 258 258 257 258 258 259 259 259 260 263 265 267 269 271 272 273 275 276 276 276 275 275 276 277 277 278 279 282 284 286 287 287 289 290 292 293 295
242 247 252 254 252 250 248 250 253 256 259 261 263 265 267 269 270 270 271 273 274 276 276 275 274 273 272 271 272 272 273 276 280 283 284 282 285 290 293 295 297 297 295
233 239 244 242 240 241 245 250 253 257 260 263 266 269 272 273 273 274 273 274 275 276 276 276 276 275 273 270 269 270 272 278 281 281 281 283 288 292 296 298 300 298 294
238 242 239 239 243 248 254 259 263 266 269 270 271 272 273 273 272 272 272 272 274 277 279 279 278 276 274 271 269 271 278 281 283 283 282 284 288 293 296 298 297 304 290
237 243 238 243 250 258 263 268 271 272 273 273 272 271 271 271 270 269 269 271 274 276 279 280 280 279 275 274 274 276 281 285 285 286 283 285 291 295 296 297 293 305 296
249 244 244 250 258 265 271 274 274 276 277 277 274 273 272 270 270 270 271 273 275 277 281 283 284 281 276 274 274 280 286 286 287 291 289 287 289 294 303 303 300 300 307
239 239 245 258 268 273 275 275 276 280 279 278 272 267 266 267 267 271 274 276 277 278 281 283 280 275 274 276 279 282 283 288 284 294 292 297 287 292 303 314 310 299 313
234 240 256 266 269 270 275 279 280 282 279 279 269 265 265 266 269 274 277 276 274 275 279 280 275 273 275 277 281 284 287 289 293 295 300 303 287 283 293 321 329 322 327
244 255 263 265 266 272 282 284 283 280 281 273 266 263 264 267 271 273 271 270 272 275 278 275 270 271 271 276 279 286 288 296 303 307 335 348 344 309 310 317 315 313 314
256 272 271 270 277 280 284 288 285 284 278 265 260 261 263 268 268 268 269 268 270 276 279 272 254 250 244 233 228 196 283 296 303 312 321 326 323 320 320 317 316 317 313
269 277 273 271 278 281 283 288 285 283 275 260 257 261 266 268 266 262 259 269 268 254 239 194 156 148 146 164 231 289 300 303 305 307 311 313 315 319 320 318 318 316 315
270 273 269 273 283 283 287 290 288 278 272 262 259 261 263 260 246 247 253 232 207 178 175 181 178 192 229 267 290 300 302 301 303 305 309 311 313 315 318 317 316 314 313
269 265 262 273 282 281 283 284 286 284 284 270 258 253 240 238 232 212 194 185 197 206 202 203 207 229 254 277 291 297 301 304 307 309 309 312 312 312 312 313 313 314 313
258 251 259 266 274 286 281 279 278 281 289 288 271 242 231 204 185 190 203 209 213 221 232 235 246 261 273 284 293 299 303 306 310 313 315 316 314 314 314 312 312 313 312
247 248 252 260 275 284 285 273 271 275 277 275 266 233 206 194 205 210 210 222 231 238 244 252 264 275 285 293 298 303 305 309 312 315 316 317 317 317 315 313 312 312 312
232 241 248 256 267 280 289 281 271 267 267 259 250 241 230 229 232 227 228 238 242 245 251 259 267 279 287 293 298 303 306 309 313 316 320 322 321 318 317 317 315 313 311
230 232 245 259 263 275 284 293 279 266 262 258 251 251 251 246 242 241 244 248 252 257 261 266 270 274 282 291 297 302 305 308 313 318 323 326 326 324 322 319 318 316 313
255 250 250 256 263 271 281 278 286 274 261 259 255 254 254 253 251 251 253 255 258 261 265 271 277 282 285 289 293 298 303 307 311 315 319 323 326 326 324 321 319 317 314
258 260 264 260 257 262 270 278 270 285 267 255 253 252 253 256 256 256 257 259 259 262 266 270 274 278 283 287 291 295 299 303 307 311 316 321 322 324 324 321 319 316 314